Location: Shepherdstown, WV
(39.4326°N, 77.8042°W)
Time: 06:13:51
(UTC-04:00)

SR - Pass Details

Date: 04 August 2021
Orbit: 581 x 874 km, 66.7° (Epoch: 24 September)

Event Time Altitude Azimuth Distance (km) Brightness Sun altitude
Rises 07:16:39 0° 236° (SW) 3,439 ? 10.6°
Reaches altitude 10° 07:19:28 10° 247° (WSW) 2,485 ? 11.2°
Maximum altitude 07:24:31 31° 308° (NW) 1,425 ? 12.1°
Drops below altitude 10° 07:29:21 10° 10° (N) 2,367 ? 13.0°
Sets 07:31:58 0° 21° (NNE) 3,251 ? 13.5°
